Volver al catálogo

SL-14 DEB

ActivoPO
NORAD 45309·DEBRIS·🇷🇺 Russia

Lanzado Aug 15, 1991 desde Plesetsk Cosmodrome

Loading…

Próximos Pases (próximas 24 horas)

TLE

ActualizadoSource: Space-Track

Época: Sep 13, 2026, 14:05 UTC

1 45309U 91056AX  26256.58688808  .00004248  00000-0  93676-2 0  9995
2 45309  82.6198 100.6889 0110390 127.4590 233.6641 13.25653018315379

Sigue SL-14 DEB en tiempo real con AllMySat

Download on the App Store